Voltar ao catálogo

SL-12 R/B(2)

AtivoGEO
NORAD 21536·ROCKET BODY·🇷🇺 Russia

Lançado Jul 1, 1991 de Baikonur Cosmodrome

Loading…

TLE

AtualizadoSource: Space-Track

Época: Sep 14, 2026, 00:01 UTC

1 21536U 91046D   26257.00129642 -.00000059  00000-0  00000-0 0  9998
2 21536  12.7498 337.8999 0016634 252.9897 104.0863  1.00925350124699

Acompanhe SL-12 R/B(2) em tempo real com AllMySat

Download on the App Store